HBJSF EHRD-LOWI

Flight info

Callsign HBJSF
Flight time 1h 7m
Altitude 41000
Route WOODY N872 NIK M624 BUB DCT LIRSU DCT KRH DCT BATUB M738 MADEB MADEB1B
Aircraft CL60/M-SBDE1E2E3FGHIJ1J4J5J7M3RWXYZ/LB1V1D1

Departure

Time 2026-05-01 10:19
Airport Rotterdam The Hague Airport (EHRD)

Arrival

Time 2026-05-01 11:26
Airport Innsbruck Airport (LOWI)
Time Latitude Longitude Altitude Speed Heading
2026-05-01 09:52 51.95070 4.43847 -8 ft 0 kts 148°
2026-05-01 10:15 51.95048 4.43859 -8 ft 7 kts 202°
2026-05-01 10:16 51.95005 4.43765 -7 ft 5 kts 236°
2026-05-01 10:16 51.94999 4.43686 -8 ft 11 kts 319°
2026-05-01 10:16 51.95178 4.43502 -8 ft 13 kts 326°
2026-05-01 10:17 51.95243 4.43402 -5 ft 12 kts 248°
2026-05-01 10:17 51.95137 4.43121 -5 ft 15 kts 244°
2026-05-01 10:17 51.95107 4.43003 -8 ft 13 kts 264°
2026-05-01 10:18 51.95224 4.42868 -7 ft 8 kts 46°
2026-05-01 10:18 51.95303 4.43066 -6 ft 63 kts 57°
2026-05-01 10:18 51.95752 4.44193 86 ft 160 kts 61°
2026-05-01 10:19 51.96391 4.45808 957 ft 186 kts 62°
2026-05-01 10:19 51.97082 4.47681 1905 ft 214 kts 65°
2026-05-01 10:19 51.97800 4.49799 2851 ft 197 kts 66°
2026-05-01 10:20 51.99040 4.53556 4580 ft 214 kts 69°
2026-05-01 10:20 51.99710 4.55784 5744 ft 234 kts 69°
2026-05-01 10:20 52.00247 4.58230 7044 ft 239 kts 89°
2026-05-01 10:20 51.99894 4.60731 8419 ft 235 kts 126°
2026-05-01 10:21 51.98659 4.62266 9819 ft 236 kts 162°
2026-05-01 10:21 51.95523 4.61257 12478 ft 249 kts 197°
2026-05-01 10:21 51.93912 4.60242 13699 ft 256 kts 197°
2026-05-01 10:22 51.90182 4.58043 14942 ft 314 kts 196°
2026-05-01 10:22 51.85939 4.55738 17090 ft 331 kts 195°
2026-05-01 10:23 51.83742 4.54616 18201 ft 335 kts 194°
2026-05-01 10:23 51.79227 4.52497 20159 ft 347 kts 192°
2026-05-01 10:23 51.76892 4.51523 21091 ft 353 kts 192°
2026-05-01 10:24 51.72075 4.49525 22855 ft 366 kts 192°
2026-05-01 10:24 51.67081 4.47462 24510 ft 378 kts 192°
2026-05-01 10:25 51.61955 4.45352 26183 ft 386 kts 192°
2026-05-01 10:25 51.56727 4.43209 27670 ft 395 kts 193°
2026-05-01 10:26 51.54060 4.42117 28325 ft 400 kts 193°
2026-05-01 10:26 51.51384 4.41025 28960 ft 404 kts 193°
2026-05-01 10:26 51.45879 4.38781 30198 ft 411 kts 193°
2026-05-01 10:27 51.40244 4.36356 31270 ft 420 kts 199°
2026-05-01 10:27 51.34813 4.32302 32208 ft 428 kts 204°
2026-05-01 10:28 51.32113 4.30244 32663 ft 430 kts 204°
2026-05-01 10:28 51.26465 4.26611 33504 ft 434 kts 194°
2026-05-01 10:28 51.23490 4.25611 33872 ft 436 kts 187°
2026-05-01 10:29 51.17447 4.25449 34748 ft 435 kts 173°
2026-05-01 10:29 51.14494 4.26282 35302 ft 432 kts 166°
2026-05-01 10:30 51.08932 4.29681 36391 ft 427 kts 151°
2026-05-01 10:30 51.04107 4.35147 37307 ft 425 kts 139°
2026-05-01 10:31 50.99600 4.41215 38034 ft 426 kts 140°
2026-05-01 10:31 50.95095 4.47259 38690 ft 427 kts 139°
2026-05-01 10:32 50.90756 4.53614 39303 ft 427 kts 130°
2026-05-01 10:32 50.88996 4.57338 39594 ft 427 kts 122°
2026-05-01 10:32 50.86021 4.65456 40128 ft 427 kts 120°
2026-05-01 10:33 50.83070 4.73589 40595 ft 428 kts 120°
2026-05-01 10:33 50.80118 4.81704 40916 ft 428 kts 120°
2026-05-01 10:34 50.78640 4.85756 41046 ft 429 kts 120°
2026-05-01 10:34 50.75639 4.93971 41117 ft 435 kts 120°
2026-05-01 10:35 50.71073 5.06417 41254 ft 441 kts 120°
2026-05-01 10:35 50.67992 5.14787 41253 ft 446 kts 120°
2026-05-01 10:36 50.63300 5.27480 41270 ft 449 kts 120°
2026-05-01 10:37 50.60162 5.35935 41270 ft 449 kts 120°
2026-05-01 10:37 50.55440 5.48605 41272 ft 448 kts 120°
2026-05-01 10:38 50.52285 5.57042 41271 ft 448 kts 120°
2026-05-01 10:38 50.49137 5.65425 41268 ft 449 kts 121°
2026-05-01 10:39 50.45942 5.73910 41273 ft 450 kts 121°
2026-05-01 10:39 50.42749 5.82361 41263 ft 450 kts 121°
2026-05-01 10:40 50.39582 5.90717 41253 ft 449 kts 121°
2026-05-01 10:40 50.36401 5.99084 41259 ft 448 kts 121°
2026-05-01 10:41 50.33217 6.07430 41266 ft 449 kts 121°
2026-05-01 10:42 50.28398 6.20011 41274 ft 451 kts 121°
2026-05-01 10:42 50.25174 6.28395 41269 ft 452 kts 121°
2026-05-01 10:43 50.21951 6.36749 41282 ft 453 kts 121°
2026-05-01 10:43 50.18650 6.45149 41283 ft 452 kts 124°
2026-05-01 10:44 50.14686 6.52732 41286 ft 451 kts 129°
2026-05-01 10:44 50.10653 6.60180 41283 ft 450 kts 129°
2026-05-01 10:45 50.06621 6.67610 41294 ft 450 kts 130°
2026-05-01 10:45 50.02579 6.75042 41307 ft 452 kts 130°
2026-05-01 10:46 49.98542 6.82446 41299 ft 454 kts 130°
2026-05-01 10:46 49.94444 6.89944 41304 ft 455 kts 130°
2026-05-01 10:47 49.90348 6.97417 41308 ft 454 kts 130°
2026-05-01 10:47 49.86275 7.04829 41305 ft 453 kts 130°
2026-05-01 10:48 49.82180 7.12260 41313 ft 454 kts 130°
2026-05-01 10:48 49.78092 7.19660 41314 ft 454 kts 130°
2026-05-01 10:49 49.73981 7.27080 41321 ft 454 kts 130°
2026-05-01 10:49 49.69850 7.34513 41323 ft 455 kts 130°
2026-05-01 10:50 49.65730 7.41908 41320 ft 455 kts 130°
2026-05-01 10:50 49.61580 7.49335 41313 ft 455 kts 129°
2026-05-01 10:51 49.57434 7.56734 41311 ft 455 kts 129°
2026-05-01 10:51 49.53302 7.64089 41304 ft 455 kts 129°
2026-05-01 10:52 49.49131 7.71489 41312 ft 455 kts 130°
2026-05-01 10:52 49.44949 7.78892 41311 ft 456 kts 130°
2026-05-01 10:53 49.40773 7.86260 41307 ft 456 kts 130°
2026-05-01 10:53 49.36592 7.93618 41307 ft 456 kts 130°
2026-05-01 10:54 49.32433 8.00915 41314 ft 456 kts 130°
2026-05-01 10:54 49.28257 8.08223 41303 ft 457 kts 130°
2026-05-01 10:55 49.24078 8.15515 41305 ft 457 kts 130°
2026-05-01 10:55 49.19884 8.22814 41297 ft 457 kts 130°
2026-05-01 10:56 49.15701 8.30073 41297 ft 457 kts 130°
2026-05-01 10:56 49.11514 8.37320 41294 ft 456 kts 130°
2026-05-01 10:57 49.07330 8.44540 41297 ft 456 kts 130°
2026-05-01 10:57 49.03147 8.51740 41301 ft 456 kts 130°
2026-05-01 10:58 48.98777 8.58697 41297 ft 457 kts 139°
2026-05-01 10:58 48.93584 8.64292 41300 ft 458 kts 144°
2026-05-01 10:59 48.88309 8.69689 41306 ft 458 kts 145°
2026-05-01 10:59 48.83035 8.75077 41298 ft 459 kts 145°
2026-05-01 11:00 48.77723 8.80491 41300 ft 459 kts 145°
2026-05-01 11:00 48.72413 8.85892 41297 ft 460 kts 145°
2026-05-01 11:01 48.67106 8.91277 41300 ft 459 kts 145°
2026-05-01 11:01 48.61802 8.96645 41299 ft 459 kts 145°
2026-05-01 11:02 48.56514 9.01985 41299 ft 459 kts 145°
2026-05-01 11:02 48.51194 9.07344 41301 ft 460 kts 145°
2026-05-01 11:03 48.45905 9.12659 41299 ft 460 kts 145°
2026-05-01 11:03 48.40587 9.17989 41292 ft 460 kts 145°
2026-05-01 11:04 48.35255 9.23320 41287 ft 460 kts 144°
2026-05-01 11:04 48.29960 9.28601 41296 ft 448 kts 144°
2026-05-01 11:05 48.24775 9.33759 41094 ft 447 kts 144°
2026-05-01 11:05 48.22170 9.36346 40640 ft 448 kts 144°
2026-05-01 11:05 48.19576 9.38919 40184 ft 446 kts 144°
2026-05-01 11:05 48.16995 9.41475 39722 ft 444 kts 144°
2026-05-01 11:06 48.14422 9.44021 39281 ft 444 kts 144°
2026-05-01 11:06 48.11852 9.46560 38543 ft 446 kts 144°
2026-05-01 11:06 48.09302 9.49077 37764 ft 445 kts 144°
2026-05-01 11:07 48.04132 9.54170 36201 ft 446 kts 144°
2026-05-01 11:07 48.01548 9.56743 35398 ft 449 kts 142°
2026-05-01 11:07 47.98986 9.59499 34598 ft 460 kts 141°
2026-05-01 11:07 47.96390 9.62315 33828 ft 463 kts 141°
2026-05-01 11:08 47.93794 9.65124 33032 ft 463 kts 141°
2026-05-01 11:08 47.91191 9.67935 32235 ft 460 kts 141°
2026-05-01 11:08 47.86069 9.73457 30653 ft 454 kts 141°
2026-05-01 11:09 47.83519 9.76200 29843 ft 451 kts 141°
2026-05-01 11:09 47.80988 9.78921 29023 ft 448 kts 141°
2026-05-01 11:09 47.78480 9.81612 28216 ft 445 kts 141°
2026-05-01 11:10 47.73499 9.86948 26628 ft 437 kts 141°
2026-05-01 11:10 47.71059 9.89556 25853 ft 433 kts 141°
2026-05-01 11:10 47.68651 9.92128 25088 ft 428 kts 141°
2026-05-01 11:10 47.66261 9.94677 24312 ft 424 kts 141°
2026-05-01 11:11 47.63882 9.97212 23542 ft 419 kts 141°
2026-05-01 11:11 47.61550 9.99693 22770 ft 414 kts 141°
2026-05-01 11:11 47.59222 10.02168 22026 ft 408 kts 141°
2026-05-01 11:11 47.56950 10.04580 21287 ft 403 kts 141°
2026-05-01 11:12 47.54692 10.06975 20564 ft 397 kts 141°
2026-05-01 11:12 47.52460 10.09340 19835 ft 392 kts 141°
2026-05-01 11:12 47.50281 10.11646 19128 ft 386 kts 141°
2026-05-01 11:12 47.48109 10.13942 18391 ft 381 kts 141°
2026-05-01 11:13 47.45969 10.16203 17696 ft 376 kts 141°
2026-05-01 11:13 47.43853 10.18401 17002 ft 371 kts 143°
2026-05-01 11:13 47.41685 10.20431 16329 ft 367 kts 145°
2026-05-01 11:13 47.39531 10.22394 15660 ft 362 kts 145°
2026-05-01 11:14 47.37421 10.24317 14982 ft 358 kts 145°
2026-05-01 11:14 47.35327 10.26225 14333 ft 353 kts 145°
2026-05-01 11:14 47.33255 10.28112 13689 ft 349 kts 145°
2026-05-01 11:14 47.31217 10.29965 13064 ft 344 kts 145°
2026-05-01 11:15 47.29207 10.31781 12445 ft 340 kts 146°
2026-05-01 11:15 47.27189 10.33606 11827 ft 336 kts 144°
2026-05-01 11:15 47.25561 10.35920 11200 ft 327 kts 120°
2026-05-01 11:15 47.24906 10.38987 10799 ft 311 kts 90°
2026-05-01 11:16 47.25270 10.42069 10745 ft 310 kts 74°
2026-05-01 11:16 47.25816 10.45166 10710 ft 314 kts 75°
2026-05-01 11:16 47.26323 10.48283 10683 ft 315 kts 76°
2026-05-01 11:16 47.26796 10.51447 10654 ft 315 kts 77°
2026-05-01 11:17 47.27227 10.54605 10620 ft 315 kts 78°
2026-05-01 11:17 47.27617 10.57756 10599 ft 314 kts 79°
2026-05-01 11:17 47.27974 10.60945 10584 ft 314 kts 80°
2026-05-01 11:17 47.28294 10.64124 10554 ft 314 kts 81°
2026-05-01 11:18 47.28578 10.67290 10531 ft 314 kts 82°
2026-05-01 11:18 47.28831 10.70467 10505 ft 315 kts 83°
2026-05-01 11:18 47.29057 10.73663 10474 ft 316 kts 84°
2026-05-01 11:18 47.29257 10.76904 10451 ft 315 kts 84°
2026-05-01 11:19 47.29427 10.80034 10471 ft 299 kts 85°
2026-05-01 11:19 47.29556 10.82974 10393 ft 283 kts 86°
2026-05-01 11:19 47.29671 10.85838 10023 ft 279 kts 85°
2026-05-01 11:19 47.29802 10.88680 9551 ft 276 kts 85°
2026-05-01 11:20 47.29922 10.91458 9124 ft 270 kts 85°
2026-05-01 11:20 47.30030 10.94180 8692 ft 265 kts 85°
2026-05-01 11:20 47.30131 10.96834 8248 ft 260 kts 86°
2026-05-01 11:20 47.30229 10.99457 7835 ft 248 kts 86°
2026-05-01 11:21 47.30318 11.01876 7422 ft 230 kts 86°
2026-05-01 11:21 47.30400 11.04104 7185 ft 208 kts 85°
2026-05-01 11:21 47.30474 11.06127 7148 ft 194 kts 85°
2026-05-01 11:21 47.30497 11.08108 7043 ft 196 kts 94°
2026-05-01 11:22 47.30132 11.10046 6791 ft 195 kts 112°
2026-05-01 11:22 47.29546 11.11812 6550 ft 187 kts 115°
2026-05-01 11:22 47.28957 11.13560 6242 ft 188 kts 113°
2026-05-01 11:22 47.28428 11.15255 6120 ft 176 kts 111°
2026-05-01 11:23 47.27915 11.16859 5869 ft 170 kts 116°
2026-05-01 11:23 47.27323 11.18294 5533 ft 161 kts 120°
2026-05-01 11:23 47.26737 11.19639 5112 ft 155 kts 118°
2026-05-01 11:23 47.26234 11.20966 4806 ft 138 kts 111°
2026-05-01 11:24 47.25884 11.22325 4507 ft 141 kts 104°
2026-05-01 11:24 47.25653 11.23703 4074 ft 145 kts 99°
2026-05-01 11:24 47.25381 11.26653 3313 ft 146 kts 90°
2026-05-01 11:25 47.25388 11.28083 2912 ft 138 kts 83°
2026-05-01 11:25 47.25644 11.30861 2312 ft 133 kts 82°
2026-05-01 11:25 47.25782 11.32196 2117 ft 132 kts 80°
2026-05-01 11:26 47.25925 11.33516 1955 ft 128 kts 83°
2026-05-01 11:26 47.26103 11.35179 1908 ft 29 kts 82°
2026-05-01 11:26 47.26061 11.35261 1908 ft 9 kts 171°
2026-05-01 11:27 47.25975 11.35278 1907 ft 15 kts 172°
2026-05-01 11:27 47.25898 11.35296 1907 ft 4 kts 171°
2026-05-01 11:27 47.25858 11.35306 1907 ft 7 kts 171°
2026-05-01 11:27 47.25850 11.35308 1907 ft 0 kts 171°